Погода в Нартасе

Россия / Республика Марий Эл     56°49′23″N   49°51′29″E
темп.,
°C
ветер,
м/с
пор.,
м/с
влажн.,
%
обл.,
%
осадки,
мм/ч
давл.,
гПа
погр.,
м
7 мая, пт
пт700:00+9ю4118985 0.0 1014199
03:00+9ю41284100 0.0 1014238
06:00+12ю51275100 0.0 1013363
09:00+16ю61155100 0.0 1013747
12:00+18ю81147100 0.0 10132130
15:00+17ю71151100 0.0 10122198
18:00+15ю7135598 0.0 1012756
21:00+11юз4987100 0.3 1014525
8 мая, сб
сб800:00+7сз4892100 0.6 1016316
03:00+7сз3791100 0.7 1017316
06:00+8с3683100 0.0 1018301
09:00+11св346193 0.0 1018903
12:00+14вюв225895 0.0 10181226
15:00+16юв345724 0.0 10161249
18:00+15юв366656 0.0 1014218
21:00+11ююв388523 0.0 1014141
9 мая, вс
вс900:00+10ююв41184100 0.0 1014207
03:00+10ююв51378100 0.0 1013293
06:00+12ююв61471100 0.0 1013465
09:00+17ююв8125792 0.0 1013899
12:00+20ю71049100 0.0 10131865
15:00+21ю6946100 0.0 10132231
18:00+17ю2362100 0.0 101447
21:00+14юз1172100 0.0 101511
10 мая, пн
пн1000:00+12зсз489394 0.0 1017285
03:00+10сз2597100 0.0 1018130
06:00+10сз3691100 0.0 1021376
09:00+11ссз5787100 0.1 1023526
12:00+11с5678100 0.0 1025785
15:00+11с677572 0.1 1026794
18:00+11с5774100 0.0 1027866
21:00+8с37771 0.1 1028272
11 мая, вт
вт1100:00+5с37865 0.0 1029115
03:00+4ссв34900 0.0 103057
06:00+7ссв35765 0.0 1031220
09:00+12св454918 0.0 1031985
12:00+15ссв344210 0.0 10301385
15:00+16ссв34415 0.0 10291423
18:00+15ссв225544 0.0 102929
21:00+10с016246 0.0 103010